Location: Unnamed
(47.6264°N, 122.3366°W)
Time: 13:31:20
(UTC-08:00)

XW-2D - Visible Passes

Search period start: 29 November 2023 00:00
Search period end: 09 December 2023 00:00
Orbit: 455 x 465 km, 97.5° (Epoch: 29 November)

Date Brightness Start Highest point End Pass type
(mag) Time Alt. Az. Time Alt. Az. Time Alt. Az.
29 Nov ? 05:59:36 10° NE 06:02:00 17° E 06:04:24 10° SE visible
29 Nov ? 18:07:05 10° S 18:10:28 57° WSW 18:13:55 10° NNW visible
30 Nov ? 06:59:49 10° NNE 07:03:20 85° WNW 07:06:49 10° SSW visible
30 Nov ? 17:35:16 10° SSE 17:38:38 54° ENE 17:42:03 10° N visible
30 Nov ? 19:10:51 10° WSW 19:11:55 11° W 19:13:01 10° WNW visible
01 Dec ? 06:28:08 10° NNE 06:31:24 36° E 06:34:39 10° SSE visible
01 Dec ? 17:04:06 10° ESE 17:06:54 23° ENE 17:09:43 10° NNE visible
01 Dec ? 18:36:50 10° SSW 18:39:45 25° W 18:42:42 10° NW visible
02 Dec ? 05:57:02 10° NE 05:59:16 16° E 06:01:30 10° SE visible
02 Dec ? 18:04:15 10° S 18:07:41 63° W 18:11:09 10° NNW visible
03 Dec ? 06:56:57 10° NNE 07:00:27 87° ESE 07:03:55 10° SSW visible
03 Dec ? 17:32:22 10° SSE 17:35:42 49° ENE 17:39:05 10° N visible
03 Dec ? 19:07:28 10° WSW 19:08:56 12° W 19:10:23 10° WNW visible
04 Dec ? 06:25:09 10° NNE 06:28:21 33° E 06:31:31 10° SSE visible
04 Dec ? 17:01:07 10° ESE 17:03:48 21° ENE 17:06:31 10° NNE visible
04 Dec ? 18:33:36 10° SSW 18:36:37 28° W 18:39:39 10° NW visible
05 Dec ? 05:54:02 10° NE 05:56:03 15° E 05:58:02 10° SE visible
05 Dec ? 18:00:57 10° S 18:04:24 71° WSW 18:07:53 10° NNW visible
06 Dec ? 06:53:35 10° NNE 06:57:05 78° ESE 07:00:32 10° S visible
06 Dec ? 17:28:58 10° SE 17:32:16 44° ENE 17:35:36 10° N visible
06 Dec ? 19:03:40 10° WSW 19:05:26 13° W 19:07:14 10° WNW visible
07 Dec ? 06:21:42 10° NNE 06:24:48 30° E 06:27:53 10° SSE visible
07 Dec ? 16:57:42 10° ESE 17:00:14 20° ENE 17:02:49 10° NNE visible
07 Dec ? 18:29:53 10° SSW 18:32:59 31° W 18:36:07 10° NNW visible
08 Dec ? 05:50:37 10° ENE 05:52:18 13° E 05:54:00 10° ESE visible
08 Dec ? 17:57:10 10° S 18:00:37 80° WSW 18:04:07 10° NNW visible
